Time,TemperatureF,DewpointF,PressureIn,WindDirection,WindDirectionDegrees,WindSpeedMPH,WindSpeedGustMPH,Humidity,HourlyPrecipIn,Conditions,Clouds,dailyrainin,SoftwareType,DateUTC
2013-05-25 00:02:00,46.0,37.0,30.23,NW,324,3.0,9.0,70,0.00,,,0.09,,2013-05-25 04:02:00,
2013-05-25 00:13:00,46.0,37.0,30.23,NW,324,3.0,9.0,70,0.00,,,0.09,,2013-05-25 04:13:00,
2013-05-25 00:23:00,45.0,37.0,30.22,NW,318,1.0,6.0,72,0.00,,,0.09,,2013-05-25 04:23:00,
2013-05-25 00:33:00,44.0,36.0,30.22,NNW,348,0.0,3.0,73,0.00,,,0.09,,2013-05-25 04:33:00,
2013-05-25 00:43:00,44.0,36.0,30.22,NNW,348,0.0,3.0,73,0.00,,,0.09,,2013-05-25 04:43:00,
2013-05-25 00:53:00,44.0,37.0,30.22,NW,319,0.0,2.0,75,0.00,,,0.07,,2013-05-25 04:53:00,
2013-05-25 01:02:00,43.0,36.0,30.22,NNW,342,0.0,0.0,76,0.00,,,0.07,,2013-05-25 05:02:00,
2013-05-25 01:12:00,43.0,36.0,30.22,NNW,342,0.0,0.0,76,0.00,,,0.07,,2013-05-25 05:12:00,
2013-05-25 01:22:00,42.0,36.0,30.22,North,350,0.0,0.0,78,0.00,,,0.07,,2013-05-25 05:22:00,
2013-05-25 01:32:00,41.0,35.0,30.22,North,350,0.0,0.0,80,0.00,,,0.07,,2013-05-25 05:32:00,
2013-05-25 01:43:00,41.0,35.0,30.22,North,350,0.0,0.0,80,0.00,,,0.07,,2013-05-25 05:43:00,
2013-05-25 01:52:00,39.0,35.0,30.22,North,350,0.0,0.0,85,0.00,,,0.05,,2013-05-25 05:52:00,
2013-05-25 02:02:00,39.0,35.0,30.22,NNW,348,0.0,0.0,87,0.00,,,0.05,,2013-05-25 06:02:00,
2013-05-25 02:12:00,39.0,35.0,30.22,NNW,348,0.0,0.0,87,0.00,,,0.05,,2013-05-25 06:12:00,
2013-05-25 02:21:00,39.0,35.0,30.22,NNW,348,0.0,0.0,87,0.00,,,0.05,,2013-05-25 06:21:00,
2013-05-25 02:32:00,39.0,36.0,30.22,NNW,348,0.0,0.0,88,0.00,,,0.05,,2013-05-25 06:32:00,
2013-05-25 02:42:00,39.0,36.0,30.22,NNW,348,0.0,0.0,88,0.00,,,0.05,,2013-05-25 06:42:00,
2013-05-25 02:52:00,39.0,36.0,30.21,NNW,348,0.0,0.0,88,0.00,,,0.05,,2013-05-25 06:52:00,
2013-05-25 03:01:00,39.0,36.0,30.22,NNW,348,0.0,0.0,88,0.00,,,0.05,,2013-05-25 07:01:00,
2013-05-25 03:11:00,39.0,36.0,30.22,NNW,348,0.0,0.0,88,0.00,,,0.05,,2013-05-25 07:11:00,
2013-05-25 03:22:00,39.0,36.0,30.22,NNW,348,0.0,0.0,89,0.00,,,0.05,,2013-05-25 07:22:00,
2013-05-25 03:32:00,40.0,37.0,30.22,NNW,347,0.0,1.0,90,0.00,,,0.05,,2013-05-25 07:32:00,
2013-05-25 03:42:00,40.0,37.0,30.22,NNW,347,0.0,1.0,90,0.00,,,0.05,,2013-05-25 07:42:00,
2013-05-25 03:52:00,40.0,37.0,30.22,NW,319,0.0,3.0,89,0.00,,,0.04,,2013-05-25 07:52:00,
2013-05-25 04:02:00,41.0,38.0,30.23,NW,319,0.0,2.0,88,0.00,,,0.04,,2013-05-25 08:02:00,
2013-05-25 04:11:00,41.0,38.0,30.23,NW,319,0.0,2.0,88,0.00,,,0.04,,2013-05-25 08:11:00,
2013-05-25 04:22:00,41.0,38.0,30.23,NW,307,0.0,0.0,88,0.00,,,0.04,,2013-05-25 08:22:00,
2013-05-25 04:32:00,41.0,38.0,30.22,NW,307,0.0,0.0,88,0.00,,,0.04,,2013-05-25 08:32:00,
2013-05-25 04:42:00,41.0,38.0,30.22,NW,307,0.0,0.0,88,0.00,,,0.04,,2013-05-25 08:42:00,
2013-05-25 04:52:00,40.0,37.0,30.22,NW,315,0.0,1.0,89,0.00,,,0.02,,2013-05-25 08:52:00,
2013-05-25 05:02:00,40.0,37.0,30.22,NW,315,0.0,0.0,89,0.00,,,0.02,,2013-05-25 09:02:00,
2013-05-25 05:11:00,40.0,37.0,30.22,NW,315,0.0,0.0,89,0.00,,,0.02,,2013-05-25 09:11:00,
2013-05-25 05:21:00,39.0,36.0,30.21,NW,315,0.0,0.0,90,0.00,,,0.02,,2013-05-25 09:21:00,
2013-05-25 05:33:00,39.0,36.0,30.22,NW,315,0.0,0.0,90,0.00,,,0.02,,2013-05-25 09:33:00,
2013-05-25 05:43:00,39.0,36.0,30.22,NW,315,0.0,0.0,90,0.00,,,0.02,,2013-05-25 09:43:00,
2013-05-25 05:53:00,38.0,36.0,30.22,NW,315,0.0,0.0,91,0.00,,,0.01,,2013-05-25 09:53:00,
2013-05-25 06:03:00,38.0,36.0,30.22,NW,315,0.0,0.0,91,0.00,,,0.01,,2013-05-25 10:03:00,
2013-05-25 06:12:00,38.0,36.0,30.22,NW,315,0.0,0.0,91,0.00,,,0.01,,2013-05-25 10:12:00,
2013-05-25 06:23:00,38.0,36.0,30.22,NW,315,0.0,0.0,92,0.00,,,0.01,,2013-05-25 10:23:00,
2013-05-25 06:33:00,38.0,36.0,30.22,NW,315,0.0,0.0,92,0.00,,,0.01,,2013-05-25 10:33:00,
2013-05-25 06:42:00,38.0,36.0,30.22,NW,315,0.0,0.0,92,0.00,,,0.01,,2013-05-25 10:42:00,
2013-05-25 06:52:00,39.0,37.0,30.23,NW,315,1.0,2.0,93,0.00,,,0.01,,2013-05-25 10:52:00,
2013-05-25 07:02:00,40.0,38.0,30.23,NW,315,2.0,4.0,92,0.00,,,0.01,,2013-05-25 11:02:00,
2013-05-25 07:12:00,40.0,38.0,30.23,NW,315,2.0,4.0,92,0.00,,,0.01,,2013-05-25 11:12:00,
2013-05-25 07:22:00,42.0,39.0,30.24,NNW,329,0.0,6.0,89,0.00,,,0.01,,2013-05-25 11:22:00,
2013-05-25 07:32:00,43.0,39.0,30.24,NNW,346,2.0,5.0,86,0.00,,,0.01,,2013-05-25 11:32:00,
2013-05-25 07:42:00,43.0,39.0,30.24,NNW,346,2.0,5.0,86,0.00,,,0.01,,2013-05-25 11:42:00,
2013-05-25 07:52:00,45.0,40.0,30.24,NNW,337,1.0,6.0,81,0.00,,,0.00,,2013-05-25 11:52:00,
2013-05-25 08:01:00,45.0,39.0,30.24,North,350,0.0,9.0,80,0.00,,,0.00,,2013-05-25 12:01:00,
2013-05-25 08:12:00,45.0,39.0,30.24,North,350,0.0,9.0,80,0.00,,,0.00,,2013-05-25 12:12:00,
2013-05-25 08:22:00,46.0,40.0,30.25,NNW,337,2.0,12.0,78,0.00,,,0.00,,2013-05-25 12:22:00,
2013-05-25 08:32:00,46.0,39.0,30.24,NNE,15,5.0,12.0,76,0.00,,,0.00,,2013-05-25 12:32:00,
2013-05-25 08:42:00,46.0,39.0,30.24,NNE,15,5.0,12.0,76,0.00,,,0.00,,2013-05-25 12:42:00,
2013-05-25 08:52:00,47.0,39.0,30.25,North,5,4.0,10.0,75,0.00,,,0.00,,2013-05-25 12:52:00,
2013-05-25 09:02:00,47.0,39.0,30.24,North,355,3.0,12.0,74,0.00,,,0.00,,2013-05-25 13:02:00,
2013-05-25 09:11:00,47.0,39.0,30.24,North,355,3.0,12.0,74,0.00,,,0.00,,2013-05-25 13:11:00,
2013-05-25 09:22:00,47.0,39.0,30.25,NNW,346,8.0,11.0,73,0.00,,,0.00,,2013-05-25 13:22:00,
2013-05-25 09:32:00,47.0,38.0,30.25,NE,42,2.0,12.0,72,0.00,,,0.00,,2013-05-25 13:32:00,
2013-05-25 09:42:00,47.0,38.0,30.25,NE,42,2.0,12.0,72,0.00,,,0.00,,2013-05-25 13:42:00,
2013-05-25 09:52:00,49.0,40.0,30.25,NNW,347,1.0,13.0,72,0.00,,,0.00,,2013-05-25 13:52:00,
2013-05-25 10:02:00,49.0,39.0,30.25,North,10,3.0,13.0,69,0.00,,,0.00,,2013-05-25 14:02:00,
2013-05-25 10:11:00,49.0,39.0,30.25,North,10,3.0,13.0,69,0.00,,,0.00,,2013-05-25 14:11:00,
2013-05-25 10:22:00,49.0,40.0,30.25,NNE,26,3.0,12.0,70,0.00,,,0.00,,2013-05-25 14:22:00,
2013-05-25 10:32:00,50.0,39.0,30.25,NNW,344,3.0,10.0,66,0.00,,,0.00,,2013-05-25 14:32:00,
2013-05-25 10:42:00,50.0,39.0,30.25,NNW,344,3.0,10.0,66,0.00,,,0.00,,2013-05-25 14:42:00,
2013-05-25 10:52:00,51.0,39.0,30.25,NW,317,5.0,12.0,64,0.00,,,0.00,,2013-05-25 14:52:00,
2013-05-25 11:01:00,51.0,40.0,30.25,NNE,16,2.0,9.0,65,0.00,,,0.00,,2013-05-25 15:01:00,
2013-05-25 11:11:00,51.0,40.0,30.25,NNE,16,2.0,9.0,65,0.00,,,0.00,,2013-05-25 15:11:00,
2013-05-25 11:22:00,51.0,37.0,30.26,North,355,6.0,17.0,59,0.00,,,0.00,,2013-05-25 15:22:00,
2013-05-25 11:33:00,51.0,38.0,30.26,NNW,339,4.0,17.0,60,0.00,,,0.00,,2013-05-25 15:33:00,
2013-05-25 11:43:00,51.0,38.0,30.26,NNW,339,4.0,17.0,60,0.00,,,0.00,,2013-05-25 15:43:00,
2013-05-25 11:53:00,51.0,38.0,30.27,NNE,24,4.0,14.0,60,0.00,,,0.00,,2013-05-25 15:53:00,
2013-05-25 12:03:00,52.0,39.0,30.27,NW,311,9.0,14.0,62,0.00,,,0.00,,2013-05-25 16:03:00,
2013-05-25 12:12:00,52.0,39.0,30.27,NW,311,9.0,14.0,62,0.00,,,0.00,,2013-05-25 16:12:00,
2013-05-25 12:23:00,52.0,39.0,30.26,West,271,3.0,17.0,62,0.00,,,0.00,,2013-05-25 16:23:00,
2013-05-25 12:32:00,52.0,38.0,30.26,NW,313,3.0,15.0,58,0.00,,,0.00,,2013-05-25 16:32:00,
2013-05-25 12:42:00,52.0,38.0,30.26,NW,313,3.0,15.0,58,0.00,,,0.00,,2013-05-25 16:42:00,
2013-05-25 12:52:00,53.0,39.0,30.25,West,278,7.0,16.0,59,0.00,,,0.00,,2013-05-25 16:52:00,
2013-05-25 13:03:00,53.0,38.0,30.25,NNW,327,10.0,20.0,57,0.00,,,0.00,,2013-05-25 17:03:00,
2013-05-25 13:11:00,53.0,38.0,30.25,NNW,327,10.0,20.0,57,0.00,,,0.00,,2013-05-25 17:11:00,
2013-05-25 13:22:00,53.0,37.0,30.24,North,360,1.0,16.0,55,0.00,,,0.00,,2013-05-25 17:22:00,
2013-05-25 13:32:00,54.0,37.0,30.24,North,5,7.0,17.0,52,0.00,,,0.00,,2013-05-25 17:32:00,
2013-05-25 13:42:00,54.0,37.0,30.24,North,5,7.0,17.0,52,0.00,,,0.00,,2013-05-25 17:42:00,
2013-05-25 13:52:00,54.0,37.0,30.23,North,5,5.0,14.0,53,0.00,,,0.00,,2013-05-25 17:52:00,
2013-05-25 14:02:00,54.0,37.0,30.23,NW,308,0.0,13.0,52,0.00,,,0.00,,2013-05-25 18:02:00,
2013-05-25 14:11:00,54.0,37.0,30.23,NW,308,0.0,13.0,52,0.00,,,0.00,,2013-05-25 18:11:00,
2013-05-25 14:21:00,55.0,38.0,30.22,NW,315,7.0,14.0,53,0.00,,,0.00,,2013-05-25 18:21:00,
2013-05-25 14:32:00,55.0,37.0,30.22,West,278,5.0,16.0,51,0.00,,,0.00,,2013-05-25 18:32:00,
2013-05-25 14:42:00,55.0,37.0,30.22,West,278,5.0,16.0,51,0.00,,,0.00,,2013-05-25 18:42:00,
2013-05-25 14:52:00,55.0,38.0,30.22,North,355,5.0,10.0,52,0.00,,,0.00,,2013-05-25 18:52:00,
2013-05-25 15:01:00,56.0,40.0,30.22,NW,316,8.0,14.0,54,0.00,,,0.00,,2013-05-25 19:01:00,
2013-05-25 15:11:00,56.0,40.0,30.22,NW,316,8.0,14.0,54,0.00,,,0.00,,2013-05-25 19:11:00,
2013-05-25 15:22:00,56.0,39.0,30.21,NW,324,3.0,13.0,52,0.00,,,0.00,,2013-05-25 19:22:00,
2013-05-25 15:32:00,57.0,41.0,30.21,WNW,301,3.0,10.0,55,0.00,,,0.00,,2013-05-25 19:32:00,
2013-05-25 15:42:00,57.0,41.0,30.21,WNW,301,3.0,10.0,55,0.00,,,0.00,,2013-05-25 19:42:00,
2013-05-25 15:52:00,57.0,38.0,30.21,NNW,339,6.0,15.0,49,0.00,,,0.00,,2013-05-25 19:52:00,
2013-05-25 16:02:00,57.0,40.0,30.21,NW,316,8.0,14.0,53,0.00,,,0.00,,2013-05-25 20:02:00,
2013-05-25 16:11:00,57.0,40.0,30.21,NW,316,8.0,14.0,53,0.00,,,0.00,,2013-05-25 20:11:00,
2013-05-25 16:22:00,57.0,39.0,30.20,North,350,4.0,12.0,51,0.00,,,0.00,,2013-05-25 20:22:00,
2013-05-25 16:32:00,57.0,39.0,30.20,NW,321,4.0,12.0,51,0.00,,,0.00,,2013-05-25 20:32:00,
2013-05-25 16:42:00,57.0,39.0,30.20,NW,321,4.0,12.0,51,0.00,,,0.00,,2013-05-25 20:42:00,
2013-05-25 16:52:00,57.0,38.0,30.20,WNW,283,4.0,15.0,49,0.00,,,0.00,,2013-05-25 20:52:00,
2013-05-25 17:02:00,57.0,39.0,30.20,NW,323,0.0,14.0,50,0.00,,,0.00,,2013-05-25 21:02:00,
2013-05-25 17:11:00,57.0,39.0,30.20,NW,323,0.0,14.0,50,0.00,,,0.00,,2013-05-25 21:11:00,
2013-05-25 17:21:00,58.0,39.0,30.19,NW,318,4.0,15.0,50,0.00,,,0.00,,2013-05-25 21:21:00,
2013-05-25 17:33:00,58.0,40.0,30.20,NNW,336,3.0,12.0,51,0.00,,,0.00,,2013-05-25 21:33:00,
2013-05-25 17:43:00,58.0,40.0,30.20,NNW,336,3.0,12.0,51,0.00,,,0.00,,2013-05-25 21:43:00,
2013-05-25 17:53:00,58.0,40.0,30.20,NNE,15,7.0,14.0,51,0.00,,,0.00,,2013-05-25 21:53:00,
2013-05-25 18:03:00,57.0,40.0,30.19,WNW,303,6.0,13.0,52,0.00,,,0.00,,2013-05-25 22:03:00,
2013-05-25 18:13:00,57.0,40.0,30.19,WNW,303,6.0,13.0,52,0.00,,,0.00,,2013-05-25 22:13:00,
2013-05-25 18:23:00,57.0,41.0,30.18,WNW,287,9.0,12.0,54,0.00,,,0.00,,2013-05-25 22:23:00,
2013-05-25 18:32:00,57.0,40.0,30.18,WNW,288,7.0,17.0,53,0.00,,,0.00,,2013-05-25 22:32:00,
2013-05-25 18:42:00,57.0,40.0,30.18,WNW,288,7.0,17.0,53,0.00,,,0.00,,2013-05-25 22:42:00,
2013-05-25 18:52:00,57.0,41.0,30.18,North,349,5.0,15.0,55,0.00,,,0.00,,2013-05-25 22:52:00,
2013-05-25 19:02:00,56.0,41.0,30.18,WNW,297,6.0,16.0,56,0.00,,,0.00,,2013-05-25 23:02:00,
2013-05-25 19:12:00,56.0,41.0,30.18,WNW,297,6.0,16.0,56,0.00,,,0.00,,2013-05-25 23:12:00,
2013-05-25 19:22:00,56.0,39.0,30.18,NNW,329,3.0,14.0,53,0.00,,,0.00,,2013-05-25 23:22:00,
2013-05-25 19:32:00,56.0,39.0,30.18,NNE,21,5.0,15.0,53,0.00,,,0.00,,2013-05-25 23:32:00,
2013-05-25 19:42:00,56.0,39.0,30.18,NNE,21,5.0,15.0,53,0.00,,,0.00,,2013-05-25 23:42:00,
2013-05-25 19:52:00,56.0,40.0,30.18,NNW,328,3.0,14.0,54,0.00,,,0.00,,2013-05-25 23:52:00,
2013-05-25 20:02:00,56.0,40.0,30.18,NNW,338,4.0,15.0,54,0.00,,,0.00,,2013-05-26 00:02:00,
2013-05-25 20:11:00,56.0,40.0,30.18,NNW,338,4.0,15.0,54,0.00,,,0.00,,2013-05-26 00:11:00,
2013-05-25 20:22:00,55.0,41.0,30.18,NNW,348,2.0,12.0,58,0.00,,,0.00,,2013-05-26 00:22:00,
2013-05-25 20:32:00,54.0,40.0,30.18,NNW,332,1.0,9.0,58,0.00,,,0.00,,2013-05-26 00:32:00,
2013-05-25 20:42:00,54.0,40.0,30.18,NNW,332,1.0,9.0,58,0.00,,,0.00,,2013-05-26 00:42:00,
2013-05-25 20:53:00,53.0,39.0,30.18,NW,317,0.0,11.0,60,0.00,,,0.00,,2013-05-26 00:53:00,
2013-05-25 21:01:00,52.0,39.0,30.18,NW,317,0.0,7.0,61,0.00,,,0.00,,2013-05-26 01:01:00,
2013-05-25 21:11:00,52.0,39.0,30.18,NW,317,0.0,7.0,61,0.00,,,0.00,,2013-05-26 01:11:00,
2013-05-25 21:21:00,51.0,39.0,30.18,NNW,343,0.0,7.0,64,0.00,,,0.00,,2013-05-26 01:21:00,
2013-05-25 21:32:00,51.0,40.0,30.18,WNW,300,0.0,3.0,65,0.00,,,0.00,,2013-05-26 01:32:00,
2013-05-25 21:42:00,51.0,40.0,30.18,WNW,300,0.0,3.0,65,0.00,,,0.00,,2013-05-26 01:42:00,
2013-05-25 21:53:00,50.0,39.0,30.18,NNW,347,3.0,10.0,65,0.00,,,0.00,,2013-05-26 01:53:00,
2013-05-25 22:02:00,50.0,39.0,30.18,WNW,300,7.0,11.0,65,0.00,,,0.00,,2013-05-26 02:02:00,
2013-05-25 22:11:00,50.0,39.0,30.18,WNW,300,7.0,11.0,65,0.00,,,0.00,,2013-05-26 02:11:00,
2013-05-25 22:21:00,51.0,39.0,30.19,NW,320,1.0,12.0,63,0.00,,,0.00,,2013-05-26 02:21:00,
2013-05-25 22:32:00,50.0,38.0,30.19,NW,323,3.0,10.0,64,0.00,,,0.00,,2013-05-26 02:32:00,
2013-05-25 22:42:00,50.0,38.0,30.19,NW,323,3.0,10.0,64,0.00,,,0.00,,2013-05-26 02:42:00,
2013-05-25 22:52:00,50.0,38.0,30.19,NNW,327,0.0,5.0,64,0.00,,,0.00,,2013-05-26 02:52:00,
2013-05-25 23:01:00,50.0,39.0,30.19,WNW,295,0.0,5.0,66,0.00,,,0.00,,2013-05-26 03:01:00,
2013-05-25 23:11:00,50.0,39.0,30.19,WNW,295,0.0,5.0,66,0.00,,,0.00,,2013-05-26 03:11:00,
2013-05-25 23:22:00,49.0,38.0,30.19,North,5,0.0,6.0,66,0.00,,,0.00,,2013-05-26 03:22:00,
2013-05-25 23:33:00,49.0,38.0,30.19,NNW,333,0.0,7.0,65,0.00,,,0.00,,2013-05-26 03:33:00,
2013-05-25 23:43:00,49.0,38.0,30.19,NNW,333,0.0,7.0,65,0.00,,,0.00,,2013-05-26 03:43:00,
2013-05-25 23:53:00,49.0,37.0,30.19,NNW,336,0.0,6.0,63,0.00,,,0.00,,2013-05-26 03:53:00,